Tracking 27111 objects as of 28-Mar-2023
HD Live streaming from Space Station
objects crossing your sky now

STARLINK-5745

Track STARLINK-5745 now!
10-day predictions
STARLINK-5745 is classified as:


NORAD ID: 55575
Int'l Code: 2023-020G
Perigee: 565.7 km
Apogee: 566.6 km
Inclination: 43.0 °
Period: 95.8 minutes
Semi major axis: 6937 km
RCS: Unknown
Launch date: February 12, 2023
Source: United States (US)
Launch site: AIR FORCE EASTERN TEST RANGE (AFETR)
Your satellite tracking list
Your tracking list is empty




NASA's NSSDC Master Catalog

Two Line Element Set (TLE):
1 55575U 23020G   23087.33334491 -.00034343  00000-0 -25386-2 0  9999
2 55575  42.9994  98.9069 0000657 277.1793 112.2316 15.02552988  6851
Source of the keplerian elements: AFSPC